TimeCDT,TemperatureF,Dew PointF,Humidity,Sea Level PressureIn,VisibilityMPH,Wind Direction,Wind SpeedMPH,Gust SpeedMPH,PrecipitationIn,Events,Conditions,WindDirDegrees,DateUTC
12:52 AM,36.0,30.0,79,30.13,10.0,West,5.8,-,N/A,,Clear,270,2013-05-13 05:52:00
1:52 AM,35.1,30.0,82,30.13,10.0,West,3.5,-,N/A,,Clear,280,2013-05-13 06:52:00
2:52 AM,34.0,28.9,82,30.14,10.0,North,6.9,-,N/A,,Clear,360,2013-05-13 07:52:00
3:52 AM,34.0,28.0,79,30.13,10.0,WSW,5.8,-,N/A,,Clear,240,2013-05-13 08:52:00
4:52 AM,32.0,28.0,85,30.14,10.0,Calm,Calm,-,N/A,,Clear,0,2013-05-13 09:52:00
5:52 AM,30.0,28.0,92,30.15,10.0,West,4.6,-,N/A,,Clear,280,2013-05-13 10:52:00
6:52 AM,35.1,32.0,89,30.17,10.0,Calm,Calm,-,N/A,,Clear,0,2013-05-13 11:52:00
7:52 AM,44.1,34.0,68,30.18,10.0,Calm,Calm,-,N/A,,Clear,0,2013-05-13 12:52:00
8:52 AM,50.0,30.9,48,30.19,10.0,West,5.8,-,N/A,,Clear,260,2013-05-13 13:52:00
9:52 AM,55.0,28.9,37,30.19,10.0,West,13.8,18.4,N/A,,Clear,280,2013-05-13 14:52:00
10:52 AM,57.0,26.1,30,30.19,10.0,WNW,10.4,17.3,N/A,,Clear,290,2013-05-13 15:52:00
11:52 AM,57.9,26.1,30,30.18,10.0,Variable,5.8,18.4,N/A,,Clear,0,2013-05-13 16:52:00
12:52 PM,60.1,25.0,26,30.16,10.0,Variable,6.9,-,N/A,,Clear,0,2013-05-13 17:52:00
1:52 PM,63.0,27.0,26,30.14,10.0,WNW,10.4,-,N/A,,Clear,290,2013-05-13 18:52:00
3:52 PM,64.0,24.1,22,30.09,10.0,WSW,3.5,-,N/A,,Clear,240,2013-05-13 20:52:00
4:52 PM,64.9,25.0,22,30.08,10.0,West,10.4,17.3,N/A,,Clear,260,2013-05-13 21:52:00
5:52 PM,64.9,26.1,23,30.07,10.0,WSW,6.9,-,N/A,,Clear,250,2013-05-13 22:52:00
7:52 PM,62.1,32.0,32,30.03,10.0,SSE,5.8,-,N/A,,Overcast,160,2013-05-14 00:52:00
8:52 PM,59.0,34.0,39,30.03,10.0,SSE,5.8,-,N/A,,Clear,160,2013-05-14 01:52:00
9:52 PM,57.9,35.1,42,30.04,10.0,South,5.8,-,N/A,,Mostly Cloudy,180,2013-05-14 02:52:00
10:52 PM,55.0,39.0,55,30.03,10.0,SSE,4.6,-,N/A,,Partly Cloudy,150,2013-05-14 03:52:00
11:52 PM,51.1,39.0,63,30.00,10.0,SSE,5.8,-,N/A,,Clear,160,2013-05-14 04:52:00